OpenBCM V1.08-5-g2f4a (Linux)

Packet Radio Mailbox

IZ3LSV

[San Dona' di P. JN]

 Login: GUEST





  
I0OJJ  > KEPS     12.11.25 01:26l 305 Lines 14559 Bytes #145 (0) @ AMSAT
BID : ORB25316.1
Read: GUEST
Subj: 2Line Orbital Elements 25316.AMSAT
Path: IZ3LSV<IK6IHL<IK7NXU<HB9ON<DK0WUE<PI8ZTM<CX2SA<EA2RCF<I0OJJ
Sent: 251112/0021z @:I0OJJ.ITA.EU [Rome] obcm1.08-11-2-gbfe9
From: I0OJJ @ I0OJJ.ITA.EU (Gustavo)
To:   KEPS @ AMSAT
X-Info: This message was generated automatically


QST de W1STR

AMSAT Orbital Elements for Amateur Satellites in TLE Format
From Orbital Analysis Office
New England Sci-Tech STEM Education Center
Natick MA November 12, 2025
To all radio amateurs


These element sets describe the orbits of various satellites 
in use by the amateur radio community. For details see:
www.amsat.org/keplerian-elements-formats/

A daily update of element sets is available at:
www.amsat.org/tle/daily-bulletin.txt
or without bulletin text:
www.amsat.org/tle/dailytle.txt


AO-07
1 07530U 74089B   25314.96896424 -.00000032  00000-0  89878-4 0  9996
2 07530 101.9977 320.9008 0012149 186.6515 205.1017 12.53693272333175
UO-11
1 14781U 84021B   25315.16445971  .00002415  00000-0  25616-3 0  9994
2 14781  97.7768 278.6952 0007617 173.3760 186.7560 14.89976570224652
AO-27
1 22825U 93061C   25315.11174957  .00000222  00000-0  10162-3 0  9998
2 22825  98.7189  17.2975 0008785  27.4613 332.7032 14.30858607675814
FO-29
1 24278U 96046B   25315.20263732  .00000026  00000-0  64930-4 0  9993
2 24278  98.5488 188.5657 0349084 301.9823  54.7828 13.53259624443680
GO-32
1 25397U 98043D   25315.23662688  .00000211  00000-0  11123-3 0  9992
2 25397  98.9893 297.7257 0002217 107.9165 252.2255 14.24363393420304
ISS
1 25544U 98067A   25315.25818480  .00012468  00000-0  22984-3 0  9991
2 25544  51.6338 298.3179 0004133  57.8977 302.2413 15.49525392537972
NO-44
1 26931U 01043C   25315.09371789  .00000415  00000-0  18611-3 0  9999
2 26931  67.0500  88.3133 0007239 271.6909  88.3364 14.31826285259224
SO-50
1 27607U 02058C   25314.69145327  .00002910  00000-0  36700-3 0  9990
2 27607  64.5536  84.6351 0070269 302.5277  56.9052 14.82201979232063
CO-55
1 27844U 03031E   25314.76376184  .00000610  00000-0  28391-3 0  9992
2 27844  98.6775 321.0781 0010704  99.0085 261.2306 14.24137302160581
CO-57
1 27848U 03031J   25315.27713716  .00000578  00000-0  27334-3 0  9998
2 27848  98.6804 321.4717 0010508 113.6978 246.5304 14.23452665160379
RS-22
1 27939U 03042A   25315.33590372  .00002578  00000-0  41098-3 0  9994
2 27939  98.3373 128.7044 0010401 236.6665 243.8648 14.72830321183470
CO-58
1 28895U 05043F   25315.30473545  .00003836  00000-0  62248-3 0  9996
2 28895  98.2711 101.8591 0014528 172.5932 187.5491 14.71702813 69695
CO-65
1 32785U 08021C   25315.22718720  .00010138  00000-0  69017-3 0  9990
2 32785  97.8049 287.8884 0011119  54.8895 305.3372 15.06446226952343
CO-66
1 32791U 08021J   25314.67552237  .00025224  00000-0  10514-2 0  9993
2 32791  97.7439 298.7586 0004570  33.9652 326.1876 15.23685560953913
RS-30
1 32953U 08025A   25315.24346755  .00000026  00000-0  11771-3 0  9997
2 32953  82.4993 131.0142 0019890  68.3857 291.9340 12.43170387792614
SRMSAT
1 37841U 11058D   25315.27201807  .00000583  00000-0  17307-3 0  9998
2 37841  19.9726 298.4042 0011605 327.3516  60.5185 14.11495117726990
ZACUBE-1
1 39417U 13066B   25315.14779849  .00008018  00000-0  66229-3 0  9990
2 39417  97.7989 271.6644 0041081 254.5420 105.1263 14.98572653648041
Delfi-N3xt
1 39428U 13066N   25315.27661713  .00011303  00000-0  10781-2 0  9998
2 39428  97.8314 231.3855 0078937 209.1581 150.5219 14.91137957642100
GOMX-1
1 39430U 13066Q   25315.28562399  .00003286  00000-0  50540-3 0  9991
2 39430  97.6624 164.3785 0132135  57.2254 304.1603 14.68370289637921
LO-74
1 39440U 13066AA  25315.21257275  .00009300  00000-0  90225-3 0  9996
2 39440  97.8662 258.9450 0061538  30.8712 329.6101 14.91442091644479
AO-73
1 39444U 13066AE  25314.62067061  .00011810  00000-0  81895-3 0  9998
2 39444  97.8030 277.5323 0037550 223.6582 136.1672 15.05190338646737
DTUSAT-2
1 40030U 14033W   25314.89033506  .00013791  00000-0  82952-3 0  9997
2 40030  98.0745 294.5872 0006515 258.2342 101.8155 15.10961477619673
EO-80
1 40032U 14033Y   25314.70377763  .00013012  00000-0  78175-3 0  9993
2 40032  98.0618 293.8293 0007313 185.4677 174.6473 15.11014689619623
LILACSAT-2
1 40908U 15049K   25315.30529336  .00023151  00000-0  51896-3 0  9991
2 40908  97.4956 339.7438 0007253 336.5060  23.5856 15.43402140562051
IO-86
1 40931U 15052B   25151.18580175  .00001241  00000-0  78118-4 0  9996
2 40931   6.0006  24.0987 0012733 338.8432  21.1169 14.78805930523159
Horyu-4
1 41340U 16012D   25314.97589136  .00053867  00000-0  10265-2 0  9990
2 41340  30.9929 167.4612 0004903 274.0605  85.9482 15.46889455536626
Lapan A3
1 41603U 16040E   25315.26470701  .00006878  00000-0  23024-3 0  9991
2 41603  97.1433 313.9745 0012732  78.6645 281.6027 15.31183958521442
CAS-2T
1 41847U 16066G   25315.16702210  .00001827  00000-0  26454-3 0  9990
2 41847  98.4066  28.2156 0345294  70.6894 293.1296 14.44018972473325
TechnoSat
1 42829U 17042E   25315.17651159  .00006531  00000-0  48672-3 0  9995
2 42829  97.4055 116.7567 0020519 115.3072 245.0283 15.03046969453937
AO-91
1 43017U 17073E   25315.20036234  .00016124  00000-0  77235-3 0  9990
2 43017  97.4972 182.1294 0164086 359.2420   0.8534 15.07826776432482
S-Net D
1 43186U 18014G   25315.29560758  .00009600  00000-0  53504-3 0  9999
2 43186  97.5470 216.6507 0010481  57.8977 302.3270 15.13761605425766
S-Net B
1 43187U 18014H   25315.30316785  .00009245  00000-0  51563-3 0  9999
2 43187  97.5479 216.6372 0011142  53.7765 306.4495 15.13738155425769
S-Net A
1 43188U 18014J   25315.29544419  .00009781  00000-0  54490-3 0  9992
2 43188  97.5487 216.8011 0010996  54.2142 306.0110 15.13767283425766
S-Net C
1 43189U 18014K   25315.30602850  .00009215  00000-0  51393-3 0  9990
2 43189  97.5504 216.8515 0012380  47.2846 312.9426 15.13732032424318
Ten-Koh
1 43677U 18084G   25315.06040466  .00004832  00000-0  37840-3 0  9992
2 43677  98.0684 133.4190 0009280 115.7543 244.4639 15.01485977383418
PO-101
1 43678U 18084H   25315.28522394  .00003525  00000-0  29443-3 0  9990
2 43678  98.1073 137.4851 0007753 123.5911 236.6052 14.99208569383552
QO-100
1 43700U 18090A   25315.17630437  .00000140  00000-0  00000-0 0  9994
2 43700   0.0138 269.7673 0002670   1.5657 228.5321  1.00272057 25494
MinXSS-2
1 43758U 18099A   25315.17150015  .00031525  00000-0  10089-2 0  9996
2 43758  97.4838  22.1532 0009471 335.4922  24.5869 15.32305204380585
AO-95
1 43770U 18099N   25315.15613193  .00015351  00000-0  69772-3 0  9992
2 43770  97.4723  11.6901 0010665  41.1538 319.0500 15.20791957380019
SNUSat 2
1 43782U 18099AA  25315.14698652  .00011967  00000-0  60030-3 0  9994
2 43782  97.4404   7.1055 0010712 345.7962  14.2968 15.17425177379918
SnugLite
1 43784U 18099AC  25315.08535005  .00016383  00000-0  73741-3 0  9991
2 43784  97.4217   6.9858 0002838   5.6421 354.4846 15.21159423380090
ITASat 1
1 43786U 18099AE  25315.14181663  .00010341  00000-0  55010-3 0  9994
2 43786  97.4376   6.1201 0014475  37.6301 322.5941 15.15353471379849
EAGLET 1
1 43790U 18099AJ  25315.11401291  .00006246  00000-0  38080-3 0  9995
2 43790  97.4565   5.4666 0012155  25.8199 334.3635 15.10642231379388
ESEO
1 43792U 18099AL  25315.06667258  .00003320  00000-0  24875-3 0  9995
2 43792  97.4289 356.5378 0012209   2.4571 357.6713 15.03298902379028
JO-97
1 43803U 18099AX  25315.21229605  .00022590  00000-0  89517-3 0  9999
2 43803  97.4462  13.1561 0005927 333.2214  26.8717 15.25398158380302
Suomi 100
1 43804U 18099AY  25315.11304692  .00017442  00000-0  76172-3 0  9992
2 43804  97.4532  11.8390 0010578 335.2078  24.8648 15.22132732380171
ISAT
1 43879U 18111D   25315.29311376  .00049455  00000-0  12885-2 0  9994
2 43879  97.5886 233.8126 0008933  31.8024 328.3758 15.38667661377408
UWE-4
1 43880U 18111E   25315.24383464  .00035588  00000-0  11384-2 0  9993
2 43880  97.5828 230.9500 0012308  36.5414 323.6665 15.32264827377255
Sparrow
1 43881U 18111F   25315.25554557  .00056167  00000-0  13719-2 0  9998
2 43881  97.6067 237.3469 0008944  61.0552 299.1590 15.40608658377510
Prox-1
1 44339U 19036A   25314.78110695  .00019172  00000-0  22159-2 0  9995
2 44339  23.9951 126.2346 0007701  36.3709 323.7312 14.83966724340919
Taurus 1
1 44530U 19059C   25315.29781921  .00013933  00000-0  24144-2 0  9991
2 44530  98.6224 102.4396 0008848 271.4895  88.5295 14.68371973326623
Duchifat 3
1 44854U 19089C   25315.05471248  .00419119  00000-0  23588-2 0  9992
2 44854  36.9318  78.5790 0008546  46.4227 313.7248 15.77060592327092
TO-108
1 44881U 19093C   25315.25565870  .00001900  00000-0  22310-3 0  9992
2 44881  97.7792  27.5877 0015089  84.4538 275.8398 14.85992178319042
FloripaSat 1
1 44885U 19093G   25315.24440243  .00012541  00000-0  99422-3 0  9992
2 44885  97.8062  43.2983 0012078  70.5179 289.7349 15.00629778319920
RS-44
1 44909U 19096E   25315.19458960  .00000008  00000-0 -42902-5 0  9990
2 44909  82.5180 124.5728 0216582 294.1679  63.6915 12.79745166274464
SALSAT
1 46495U 20068K   25314.92433957  .00012562  00000-0  49764-3 0  9990
2 46495  97.8774 300.5029 0010612 357.7916   2.3272 15.25518318282039
CSS (TIANHE-1)
1 48274U 21035A   25315.07147493  .00034921  00000-0  40806-3 0  9997
2 48274  41.4650 208.9545 0004678   2.0482 358.0375 15.60869070259088
TUBIN
1 48900U 21059X   25315.28440549  .00253590  00000-0  99254-3 0  9996
2 48900  97.6682 139.3225 0001760 359.2547   0.8720 15.86348512244308
CUTE
1 49263U 21088D   25315.22577410  .00038095  00000-0  55239-3 0  9999
2 49263  97.4369  36.7218 0005961  40.1269 320.0425 15.55738764228395
TeikyoSat 4
1 49396U 21102B   25315.09470065  .00003217  00000-0  21035-3 0  9991
2 49396  97.3945 347.8798 0011359 330.8339  29.2254 15.08422905219837
Z-Sat
1 49399U 21102E   25315.29720110  .00007321  00000-0  38350-3 0  9993
2 49399  97.3627 352.1878 0015735 288.9987  70.9541 15.15985015220400
